Hourly Data Report for October 11, 2014

All times are specified in Local Standard Time (LST). Add 1 hour to adjust for Daylight Saving Time where and when it is observed.

PANGNIRTUNG
NUNAVUT

66°08'36.300" N
65°42'40.500" W
22.60 m
2403049
71826
WXP

Download Data

Hourly Data (October 2014)
Hourly Data Report for October 11, 2014
Temp Definition
°C
Dew Point Temp Definition
°C
Rel Hum Definition
%
Wind Dir Definition
10's deg

Wind Spd Definition
km/h
Visibility Definition
km
Stn Press Definition
kPa
Hmdx Definition


Wind Chill Definition


Weather Definition


TIME
00:00 6.0 -0.2 64 9 27   98.93     LegendNANA
01:00 4.8 1.0 76 8 31   98.95     LegendNANA
02:00 5.1 0.7 73 6 18   98.98     LegendNANA
03:00 4.0 1.0 81 8 26   99.01     LegendNANA
04:00 3.6 1.0 83 7 16   99.06     LegendNANA
05:00 3.7 0.3 78 8 19   99.09     LegendNANA
06:00 4.7 -0.2 70 9 21   99.10     LegendNANA
07:00 4.9 -0.5 68 10 24   99.13     LegendNANA
08:00 4.4 -0.6 70 8 27   99.15     LegendNANA
09:00 4.9 -1.2 65 7 26   99.17     LegendNANA
10:00 5.5 -1.1 63 7 28   99.20     LegendNANA
11:00 5.0 -0.8 66 9 29   99.20     LegendNANA
12:00 4.9 -1.1 65 10 35   99.25     LegendNANA
13:00 4.1 -0.4 73 12 27   99.31     LegendNANA
14:00 3.2 -1.2 73 12 21   99.39     LegendNANA
15:00 1.8 -3.0 71 13 25   99.43     LegendNANA
16:00 1.4 -3.9 68 14 20   99.47     LegendNANA
17:00 0.6 -3.5 74 11 18   99.52     LegendNANA
18:00 0.4 -3.9 73 5 10   99.55     LegendNANA
19:00 -0.9 -1.8 94 10 6   99.55   -3 LegendNANA
20:00 -0.8 -2.3 89 6 6   99.58   -3 LegendNANA
21:00 -1.1 -2.1 93 4 12   99.57   -5 LegendNANA
22:00 -1.5 -2.2 95 5 8   99.55   -5 LegendNANA
23:00 -1.7 -2.1 97 5 7   99.56   -4 LegendNANA

Notes on Data Quality.

Legend

  • E = Estimated
  • M = Missing
  • NA = Not Available
  • ‡ = Partner data that is not subject to review by the National Climate Archives
Date modified: